• En España
  • Lista de países
  • Para 7 días
  • Temperatura del agua
  • Mapa Satelital
  • El tiempo en el mapa
  • Informadores
  • user-avatar
    Iniciar sesión

    Tiempo cada hora Saurimo

    Hoy, 16 Diciembre, Sábado

    Tiempo Temperatura Precipitaciones Viento Presión Humedad
    00:00 +19°C° 0,5 mm 0 mps 669 mmHg 94%
    01:00 +18°C° 0 mm 0 mps 669 mmHg 95%
    02:00 +18°C° 0,5 mm 0 mps 669 mmHg 96%
    03:00 +18°C° 0,5 mm 0 mps 669 mmHg 96%
    04:00 +18°C° 0,5 mm 0 mps 669 mmHg 96%
    05:00 +19°C° 0,4 mm 0 mps 670 mmHg 96%
    06:00 +19°C° 0,4 mm 0 mps 670 mmHg 95%
    07:00 +20°C° 0 mm 0 mps 671 mmHg 95%
    08:00 +21°C° 0,9 mm 0 mps 671 mmHg 93%
    09:00 +24°C° 0,9 mm 1 mps 671 mmHg 90%
    10:00 +24°C° 0,9 mm 1 mps 671 mmHg 88%
    11:00 +25°C° 1 mm 1 mps 670 mmHg 84%
    12:00 +26°C° 1 mm 1 mps 670 mmHg 81%
    13:00 +27°C° 1 mm 2 mps 670 mmHg 77%
    14:00 +27°C° 1,5 mm 2 mps 669 mmHg 81%
    15:00 +26°C° 1,5 mm 1 mps 669 mmHg 84%
    16:00 +26°C° 1,5 mm 1 mps 668 mmHg 88%
    17:00 +25°C° 1,3 mm 1 mps 669 mmHg 90%
    18:00 +23°C° 1,3 mm 1 mps 669 mmHg 91%
    19:00 +22°C° 1,3 mm 1 mps 669 mmHg 93%
    20:00 +22°C° 0,5 mm 1 mps 669 mmHg 94%
    21:00 +21°C° 0,5 mm 1 mps 670 mmHg 95%
    22:00 +21°C° 0,5 mm 1 mps 670 mmHg 95%
    23:00 +21°C° 0,3 mm 1 mps 670 mmHg 96%

    Mañana, 17 Diciembre, Domingo

    Tiempo Temperatura Precipitaciones Viento Presión Humedad
    00:00 +21°C° 0,3 mm 1 mps 670 mmHg 96%
    01:00 +20°C° 0,3 mm 1 mps 669 mmHg 97%
    02:00 +20°C° 0,1 mm 1 mps 669 mmHg 97%
    03:00 +20°C° 0,1 mm 1 mps 669 mmHg 97%
    04:00 +20°C° 0,1 mm 1 mps 669 mmHg 96%
    05:00 +20°C° 0 mm 1 mps 669 mmHg 95%
    06:00 +21°C° 0 mm 1 mps 670 mmHg 94%
    07:00 +19°C° 0 mm 0 mps 670 mmHg 93%
    08:00 +21°C° 0,4 mm 0 mps 671 mmHg 90%
    09:00 +24°C° 0,4 mm 1 mps 671 mmHg 87%
    10:00 +26°C° 0,4 mm 1 mps 671 mmHg 84%
    11:00 +27°C° 0,6 mm 1 mps 671 mmHg 78%
    12:00 +28°C° 0,6 mm 1 mps 670 mmHg 71%
    13:00 +30°C° 0,6 mm 1 mps 670 mmHg 65%
    14:00 +29°C° 0,9 mm 1 mps 669 mmHg 70%
    15:00 +26°C° 0,9 mm 0 mps 669 mmHg 74%
    16:00 +26°C° 0,9 mm 0 mps 668 mmHg 79%
    17:00 +26°C° 1,8 mm 1 mps 669 mmHg 83%
    18:00 +24°C° 1,8 mm 1 mps 669 mmHg 87%
    19:00 +22°C° 1,8 mm 1 mps 669 mmHg 92%
    20:00 +22°C° 1,2 mm 1 mps 669 mmHg 93%
    21:00 +22°C° 1,2 mm 1 mps 670 mmHg 94%
    22:00 +21°C° 1,2 mm 1 mps 670 mmHg 95%
    23:00 +21°C° 0,7 mm 1 mps 670 mmHg 95%

    Pasado mañana, 18 Diciembre, Lunes

    Tiempo Temperatura Precipitaciones Viento Presión Humedad
    00:00 +21°C° 0,7 mm 1 mps 670 mmHg 96%
    01:00 +21°C° 0,7 mm 1 mps 669 mmHg 96%
    02:00 +20°C° 1 mm 1 mps 669 mmHg 96%
    03:00 +20°C° 1 mm 1 mps 669 mmHg 97%
    04:00 +20°C° 1 mm 1 mps 669 mmHg 97%
    05:00 +20°C° 1,1 mm 1 mps 669 mmHg 97%
    06:00 +21°C° 1,1 mm 1 mps 670 mmHg 97%
    07:00 +21°C° 1,1 mm 1 mps 670 mmHg 97%
    08:00 +21°C° 1,1 mm 1 mps 671 mmHg 96%
    09:00 +21°C° 1,1 mm 2 mps 671 mmHg 95%
    10:00 +21°C° 1,1 mm 2 mps 671 mmHg 94%
    11:00 +23°C° 0,6 mm 2 mps 670 mmHg 90%
    12:00 +24°C° 0,6 mm 2 mps 670 mmHg 87%
    13:00 +25°C° 0,6 mm 2 mps 669 mmHg 83%
    14:00 +25°C° 0,4 mm 2 mps 669 mmHg 83%
    15:00 +25°C° 0,4 mm 2 mps 668 mmHg 84%
    16:00 +25°C° 0,4 mm 2 mps 668 mmHg 84%
    17:00 +24°C° 0,3 mm 1 mps 668 mmHg 88%
    18:00 +23°C° 0,3 mm 1 mps 668 mmHg 92%
    19:00 +21°C° 0,3 mm 1 mps 669 mmHg 95%
    20:00 +21°C° 0,1 mm 1 mps 669 mmHg 96%
    21:00 +21°C° 0,1 mm 1 mps 669 mmHg 96%
    22:00 +20°C° 0,1 mm 1 mps 670 mmHg 97%
    23:00 +20°C° 0 mm 1 mps 669 mmHg 97%

    19 Diciembre, Martes

    Tiempo Temperatura Precipitaciones Viento Presión Humedad
    00:00 +20°C° 0 mm 1 mps 669 mmHg 97%
    01:00 +19°C° 0 mm 1 mps 669 mmHg 98%
    02:00 +19°C° 0 mm 1 mps 668 mmHg 98%
    03:00 +19°C° 0 mm 1 mps 668 mmHg 98%
    04:00 +19°C° 0 mm 1 mps 668 mmHg 97%
    05:00 +20°C° 0 mm 1 mps 669 mmHg 96%
    06:00 +20°C° 0 mm 1 mps 669 mmHg 95%
    07:00 +21°C° 0 mm 1 mps 670 mmHg 94%
    08:00 +23°C° 0,1 mm 1 mps 670 mmHg 87%
    09:00 +24°C° 0,1 mm 2 mps 671 mmHg 80%
    10:00 +26°C° 0,1 mm 2 mps 671 mmHg 74%
    11:00 +26°C° 0,9 mm 2 mps 670 mmHg 78%
    12:00 +26°C° 0,9 mm 2 mps 669 mmHg 82%
    13:00 +25°C° 0,9 mm 3 mps 669 mmHg 86%
    14:00 +24°C° 1,3 mm 2 mps 669 mmHg 88%
    15:00 +24°C° 1,3 mm 2 mps 668 mmHg 91%
    16:00 +23°C° 1,3 mm 2 mps 668 mmHg 94%
    17:00 +21°C° 0,9 mm 2 mps 669 mmHg 95%
    18:00 +20°C° 0,9 mm 2 mps 669 mmHg 95%
    19:00 +20°C° 0,9 mm 2 mps 669 mmHg 96%
    20:00 +21°C° 0,3 mm 1 mps 670 mmHg 97%
    21:00 +20°C° 0,3 mm 1 mps 670 mmHg 97%
    22:00 +20°C° 0,3 mm 1 mps 670 mmHg 97%
    23:00 +20°C° 0,7 mm 1 mps 670 mmHg 98%

    20 Diciembre, Miércoles

    Tiempo Temperatura Precipitaciones Viento Presión Humedad
    00:00 +20°C° 0,7 mm 1 mps 669 mmHg 98%
    01:00 +20°C° 0,7 mm 1 mps 669 mmHg 98%
    02:00 +20°C° 0,7 mm 1 mps 669 mmHg 98%
    03:00 +20°C° 0,7 mm 1 mps 669 mmHg 97%
    04:00 +20°C° 0,7 mm 1 mps 669 mmHg 97%
    05:00 +20°C° 0,2 mm 1 mps 669 mmHg 97%
    06:00 +20°C° 0,2 mm 1 mps 670 mmHg 96%
    07:00 +20°C° 0,2 mm 1 mps 670 mmHg 96%
    08:00 +21°C° 0,1 mm 1 mps 671 mmHg 91%
    09:00 +21°C° 0,1 mm 2 mps 671 mmHg 87%
    10:00 +23°C° 0,1 mm 2 mps 671 mmHg 83%
    11:00 +24°C° 0,3 mm 2 mps 671 mmHg 78%
    12:00 +25°C° 0,3 mm 2 mps 671 mmHg 74%
    13:00 +26°C° 0,3 mm 2 mps 671 mmHg 69%
    14:00 +26°C° 0,1 mm 2 mps 670 mmHg 70%
    15:00 +26°C° 0,1 mm 1 mps 670 mmHg 71%
    16:00 +26°C° 0,1 mm 1 mps 670 mmHg 72%
    17:00 +24°C° 0 mm 1 mps 670 mmHg 77%
    18:00 +22°C° 0 mm 1 mps 670 mmHg 82%
    19:00 +21°C° 0 mm 1 mps 670 mmHg 87%
    20:00 +20°C° 0 mm 1 mps 670 mmHg 88%
    21:00 +18°C° 0 mm 0 mps 670 mmHg 89%
    22:00 +18°C° 0 mm 0 mps 670 mmHg 90%
    23:00 +18°C° 0 mm 0 mps 670 mmHg 89%

    21 Diciembre, Jueves

    Tiempo Temperatura Precipitaciones Viento Presión Humedad
    00:00 +18°C° 0 mm 0 mps 670 mmHg 88%
    01:00 +18°C° 0 mm 0 mps 670 mmHg 88%
    02:00 +18°C° 0 mm 0 mps 670 mmHg 89%
    03:00 +18°C° 0 mm 0 mps 670 mmHg 90%
    04:00 +18°C° 0 mm 0 mps 670 mmHg 91%
    05:00 +18°C° 0 mm 0 mps 671 mmHg 91%
    06:00 +18°C° 0 mm 0 mps 671 mmHg 91%
    07:00 +19°C° 0 mm 0 mps 672 mmHg 91%
    08:00 +20°C° 0,3 mm 0 mps 672 mmHg 88%
    09:00 +21°C° 0,3 mm 0 mps 672 mmHg 86%
    10:00 +22°C° 0,3 mm 0 mps 672 mmHg 83%
    11:00 +23°C° 0,8 mm 0 mps 672 mmHg 81%
    12:00 +24°C° 0,8 mm 0 mps 671 mmHg 79%
    13:00 +25°C° 0,8 mm 0 mps 671 mmHg 77%
    14:00 +24°C° 0,7 mm 0 mps 670 mmHg 79%
    15:00 +24°C° 0,7 mm 0 mps 670 mmHg 81%
    16:00 +25°C° 0,7 mm 1 mps 669 mmHg 83%
    17:00 +24°C° 0,1 mm 1 mps 669 mmHg 87%
    18:00 +20°C° 0,1 mm 0 mps 669 mmHg 91%
    19:00 +19°C° 0,1 mm 0 mps 670 mmHg 94%
    20:00 +19°C° 0 mm 0 mps 670 mmHg 94%
    21:00 +19°C° 0 mm 0 mps 670 mmHg 94%
    22:00 +21°C° 0 mm 1 mps 671 mmHg 94%
    23:00 +20°C° 0 mm 1 mps 670 mmHg 95%
    Mostrar más